Location: Fours
(44.3167°N, 6.7000°E)
Time: 13:07:24
(UTC+00:00)

X-37B - Pass Details

Date: 06 December 2021
Orbit: 334 x 337 km, 45.0° (Epoch: 11 January)

Event Time Altitude Azimuth Distance (km) Brightness Sun altitude
Rises 16:53:23 0° 198° (SSW) 2,090 4.9 -10.3°
Maximum altitude 16:57:16 10° 143° (SE) 1,261 3.0 -11.0°
Drops below altitude 10° 16:57:23 10° 141° (SE) 1,262 3.0 -11.0°
Enters shadow 16:58:25 - 121° (ESE) 1,354 3.0 -11.1°
